Station OTNM4 - Ontonagon, MI Image indicating link to RSS feed of recent meteorological observations for station OTNM4


Conditions at OTNM4 as of
(4:50 pm CDT)
2150 GMT on 04/19/2024:
     

Click on the graph icon in the table below to see a time series plot of the last five days of that observation.

5-day plot - Wind Direction Wind Direction (WDIR):WNW ( 300 deg true )
5-day plot - Wind Speed Wind Speed (WSPD): 15.0 kts
5-day plot - Wind Gust Wind Gust (GST): 22.9 kts
5-day plot - Atmospheric Pressure Atmospheric Pressure (PRES):29.90 in
5-day plot - Air Temperature Air Temperature (ATMP): 38.5 °F
5-day plot - Wind Chill Wind Chill (CHILL): 29.3 °F
5-day plot - Wind Speed at 10 Meters Wind Speed at 10 meters (WSPD10M): 15.5 kts
5-day plot - Wind Speed at 20 Meters Wind Speed at 20 meters (WSPD20M): 15.5 kts
5-day plot -  Wind Speed, Wind Gust and Atmospheric Pressure Combined plot of Wind Speed, Gust, and Air Pressure
Previous observations
TIME
(CDT)
5-day plot - Wind Direction
WDIR
 
5-day plot - Wind Speed
WSPD
kts
5-day plot - Wind Gust
GST
kts
5-day plot - Wave Height
WVHT
ft
5-day plot - Dominant Wave Period
DPD
sec
5-day plot - Average Wave Period
APD
sec
5-day plot - Mean Wave Direction
MWD
 
5-day plot - Atmospheric Pressure
PRES
in
5-day plot - Pressure Tendency
PTDY
in
5-day plot - Air Temperature
ATMP
°F
5-day plot - Water Temperature
WTMP
°F
5-day plot - Dew Point
DEWP
°F
5-day plot - Salinity
SAL
psu
5-day plot - Visibility
VIS
nmi
5-day plot - Tide (above MLLW)
TIDE
ft
2024-04-19 04:40 pm NW 15.9 20.0----29.90- 38.5-----
2024-04-19 04:30 pmWNW 14.0 21.0----29.89- 38.3-----
2024-04-19 04:20 pmWNW 14.0 22.9----29.90- 38.7-----
2024-04-19 04:10 pmWNW 15.0 22.0----29.89- 38.3-----
2024-04-19 04:00 pm NW 15.9 22.0----29.89+0.01 38.5-----
2024-04-19 03:50 pmWNW 15.9 26.0----29.90- 38.8-----
2024-04-19 03:40 pmWNW 15.0 22.9----29.90- 38.5-----
2024-04-19 03:30 pm NW 17.1 26.0----29.89- 39.4-----
2024-04-19 03:20 pmWNW 17.1 27.0----29.90- 39.0-----
2024-04-19 03:10 pm NW 17.1 25.1----29.89- 38.3-----
2024-04-19 03:00 pmWNW 15.0 24.1----29.89+0.01 38.7-----
2024-04-19 02:50 pmWNW 15.9 22.0----29.90- 38.8-----
2024-04-19 02:40 pmWNW 9.9 22.9----29.90- 39.2-----
2024-04-19 02:30 pmWNW 14.0 25.1----29.89- 38.8-----
2024-04-19 02:20 pmWNW 13.0 26.0----29.90- 39.2-----
2024-04-19 02:10 pm NW 17.1 22.9----29.88- 39.4-----
2024-04-19 02:00 pm NW 18.1 26.0----29.88+0.00 38.5-----
2024-04-19 01:50 pmWNW 12.0 24.1----29.89- 39.6-----
2024-04-19 01:40 pm NW 15.9 24.1----29.88- 38.8-----
2024-04-19 01:30 pmWNW 15.0 24.1----29.88- 38.8-----
2024-04-19 01:20 pmWNW 15.9 25.1----29.89- 38.7-----
2024-04-19 01:10 pm NW 17.1 27.0----29.88- 38.3-----
2024-04-19 01:00 pmWNW 15.0 24.1----29.88+0.01 38.7-----
2024-04-19 12:50 pmWNW 14.0 22.0----29.87- 38.5-----
2024-04-19 12:40 pm NW 15.0 22.0----29.88- 38.1-----
2024-04-19 12:30 pmWNW 15.0 24.1----29.88- 38.1-----
2024-04-19 12:20 pmWNW 15.9 27.0----29.88- 38.1-----
2024-04-19 12:10 pmWNW 15.9 22.9----29.88- 37.9-----
2024-04-19 12:00 pmWNW 17.1 28.9----29.88+0.03 37.9-----
2024-04-19 11:50 amWNW 14.0 25.1----29.88- 38.1-----
2024-04-19 11:40 amWNW 14.0 26.0----29.88- 37.9-----
2024-04-19 11:30 amWNW 17.1 24.1----29.88- 37.8-----
2024-04-19 11:20 amWNW 13.0 21.0----29.88- 38.3-----
2024-04-19 11:10 amWNW 17.1 22.0----29.88- 37.6-----
2024-04-19 11:00 am NW 13.0 22.0----29.88+0.02 37.6-----
2024-04-19 10:50 amWNW 14.0 22.0----29.88- 37.6-----
2024-04-19 10:40 amWNW 15.0 22.0----29.88- 37.2-----
2024-04-19 10:30 amWNW 14.0 22.0----29.88- 37.6-----
2024-04-19 10:20 amWNW 13.0 21.0----29.88- 37.6-----
2024-04-19 10:10 amWNW 12.0 22.0----29.88- 37.8-----
2024-04-19 10:00 amWNW 15.0 22.9----29.87+0.01 37.4-----
2024-04-19 09:50 amWNW 14.0 21.0----29.87- 37.4-----
2024-04-19 09:40 amWNW 15.9 24.1----29.87- 37.4-----
2024-04-19 09:30 amWNW 13.0 21.0----29.87- 37.8-----
2024-04-19 09:20 amWNW 14.0 22.9----29.87- 37.4-----
2024-04-19 09:10 amWNW 11.1 22.0----29.87- 37.9-----
2024-04-19 09:00 amWNW 14.0 24.1----29.85-0.01 37.8-----
2024-04-19 08:50 amWNW 14.0 22.0----29.87- 37.4-----
2024-04-19 08:40 amWNW 15.0 22.0----29.87- 37.4-----
2024-04-19 08:30 amWNW 14.0 24.1----29.86- 37.9-----
2024-04-19 08:20 amWNW 15.9 27.0----29.87- 37.6-----
2024-04-19 08:10 amWNW------29.87- 37.2-----
2024-04-19 08:00 amWNW 14.0 22.9----29.86-0.01 37.4-----
2024-04-19 07:50 amWNW 15.0 21.0----29.87- 37.6-----
2024-04-19 07:40 amWNW 11.1 22.0----29.86- 37.8-----
2024-04-19 07:30 amWNW 12.0 21.0----29.87- 37.6-----
2024-04-19 07:20 amWNW 15.9 25.1----29.87- 37.6-----
2024-04-19 07:10 amWNW 13.0 20.0----29.87- 37.6-----
2024-04-19 07:00 amWNW 11.1 22.0----29.86-0.02 37.6-----
2024-04-19 06:50 amWNW 13.0 22.9----29.87- 37.6-----
2024-04-19 06:40 amWNW 14.0 22.9----29.86- 37.6-----
2024-04-19 06:30 amWNW 13.0 20.0----29.86- 37.8-----
2024-04-19 06:20 amWNW 15.9 22.9----29.86- 37.8-----
2024-04-19 06:10 amWNW 15.0 25.1----29.86- 37.8-----
2024-04-19 06:00 amWNW 14.0 21.0----29.86-0.03 37.9-----
2024-04-19 05:50 amWNW 13.0 25.1----29.87- 37.9-----
2024-04-19 05:40 amWNW 15.0 22.0----29.86- 38.1-----
2024-04-19 05:30 amWNW 15.9 24.1----29.86- 38.1-----
2024-04-19 05:20 amWNW 13.0 22.0----29.87- 38.3-----
2024-04-19 05:10 amWNW 13.0 26.0----29.87- 38.3-----
2024-04-19 05:00 amWNW 12.0 20.0----29.87-0.03------
2024-04-19 04:50 amWNW 14.0 21.0----29.87- 38.5-----
2024-04-19 04:40 amWNW 13.0 22.9----29.87- 38.5-----
2024-04-19 04:30 amWNW 14.0 22.9----29.88- 38.5-----
2024-04-19 04:20 amWNW 15.0 24.1----29.88- 38.7-----
2024-04-19 04:10 amWNW 15.0 22.9----29.88- 38.7-----
2024-04-19 04:00 amWNW 13.0 22.0----29.88-0.03 38.8-----
2024-04-19 03:50 am W 8.9 18.1----29.89- 38.8-----
2024-04-19 03:40 amWNW 8.0 15.0----29.89- 39.0-----
2024-04-19 03:30 am W 9.9 17.1----29.88- 39.2-----
2024-04-19 03:20 amWNW 13.0 21.0----29.89- 39.4-----
2024-04-19 03:10 amWNW 11.1 18.1----29.89- 39.6-----
2024-04-19 03:00 amWNW 11.1 19.0----29.89-0.04 39.9-----
2024-04-19 02:50 amWNW 11.1 18.1----29.89- 39.9-----
2024-04-19 02:40 amWNW 11.1 20.0----29.89- 39.9-----
2024-04-19 02:30 amWNW 12.0 18.1----29.89- 39.9-----
2024-04-19 02:20 amWNW 8.0 15.9----29.89- 39.9-----
2024-04-19 02:10 amWNW 11.1 18.1----29.90- 39.7-----
2024-04-19 02:00 amWNW 8.0 15.9----29.90-0.03 39.6-----
2024-04-19 01:50 amWNW 11.1 17.1----29.90- 39.7-----
2024-04-19 01:40 amWNW 11.1 15.9----29.90- 39.9-----
2024-04-19 01:30 amWNW 8.0 12.0----29.91- 39.9-----
2024-04-19 01:20 amWNW 7.0 12.0----29.91- 39.9-----
2024-04-19 01:10 amWNW 7.0 13.0----29.91- 39.9-----
2024-04-19 01:00 amWNW 8.0 14.0----29.91-0.02 39.7-----
2024-04-19 12:50 amWNW 11.1 15.9----29.91- 39.9-----
2024-04-19 12:40 amWNW 9.9 15.0----29.91- 39.9-----
2024-04-19 12:30 amWNW 8.0-----29.92- 40.1-----
2024-04-19 12:20 amWNW 6.0 13.0----29.92- 40.1-----
2024-04-19 12:10 amWNW 9.9 15.9----29.92- 40.3-----
2024-04-19 12:00 amWNW 9.9 15.9----29.93+0.00 40.3-----
2024-04-18 11:50 pmWNW 9.9 14.0----29.93- 40.3-----
2024-04-18 11:40 pmWNW 8.0 15.0----29.93- 40.1-----
2024-04-18 11:30 pmWNW 8.9 12.0----29.93- 40.1-----
2024-04-18 11:20 pmWNW 8.0 13.0----29.93- 40.3-----
2024-04-18 11:10 pmWNW 8.9 15.0----29.93-------
2024-04-18 11:00 pm W 6.0 11.1----29.93+0.02------
2024-04-18 10:50 pmWNW 6.0 11.1----29.93-------
2024-04-18 10:40 pmWNW 7.0 13.0----29.93- 41.0-----
2024-04-18 10:30 pm W 7.0 12.0----29.93- 41.2-----
2024-04-18 10:20 pmWNW 8.0 14.0----29.93- 41.4-----
2024-04-18 10:10 pmWNW 9.9 15.0----29.93- 41.4-----
2024-04-18 10:00 pmWNW 11.1 17.1----29.93+0.03 41.4-----
2024-04-18 09:50 pmWNW 9.9 15.0----29.93- 41.5-----
2024-04-18 09:40 pmWNW 8.0 14.0----29.93- 41.5-----
2024-04-18 09:30 pmWNW 8.0 15.9----29.93- 41.9-----
2024-04-18 09:20 pmWNW 11.1 15.9----29.93-------
2024-04-18 09:10 pmWNW 11.1 18.1----29.93- 42.4-----
2024-04-18 09:00 pmWNW 12.0 18.1----29.93+0.03 42.6-----
2024-04-18 08:50 pmWNW 9.9 15.9----29.93- 42.4-----
2024-04-18 08:40 pmWNW 9.9 15.9----29.93- 43.0-----
2024-04-18 08:30 pmWNW 6.0 9.9----29.92- 43.0-----
2024-04-18 08:20 pmWNW 6.0 9.9----29.92- 43.3-----
2024-04-18 08:10 pmWNW 8.0 12.0----29.91- 43.7-----
2024-04-18 08:00 pmWNW 6.0 11.1----29.91+0.02 43.7-----
2024-04-18 07:50 pmWNW 7.0 11.1----29.91- 43.9-----
2024-04-18 07:40 pmWNW 6.0 11.1----29.91- 44.1-----
2024-04-18 07:30 pm W 6.0 8.9----29.91- 44.4-----
2024-04-18 07:20 pmWNW 6.0 9.9----29.91- 44.6-----
2024-04-18 07:10 pmWNW 6.0 12.0----29.91- 45.3-----
2024-04-18 07:00 pmWNW 6.0 9.9----29.90+0.02 45.3-----
2024-04-18 06:50 pmWNW 6.0 9.9----29.90- 44.6-----
2024-04-18 06:40 pmWNW 5.1 8.0----29.90- 45.1-----
2024-04-18 06:30 pmWNW 7.0 13.0----29.90- 45.0-----
2024-04-18 06:20 pmWNW------29.90- 45.7-----
2024-04-18 06:10 pmWNW 6.0 12.0----29.90- 46.8-----
2024-04-18 06:00 pmWNW 4.1-----29.90+0.02 47.5-----
2024-04-18 05:50 pm W 2.9 8.9----29.90- 46.6-----
2024-04-18 05:40 pmWNW 7.0 11.1----29.90- 46.6-----
2024-04-18 05:30 pmWNW 7.0 9.9----29.90- 46.2-----
2024-04-18 05:20 pmWNW 6.0 8.9----29.90-------
2024-04-18 05:10 pmWNW 6.0 8.9----29.90- 46.9-----
2024-04-18 05:00 pmWNW 5.1 8.0----29.89-0.01 46.4-----
2024-04-18 04:50 pm NW 5.1 8.0----29.89- 46.4-----